Location: Makanda
(37.6176°N, 89.2090°W)
Time: 00:38:52
(UTC+00:00)

ARIANE 5 R/B - Pass Details

Date: 23 September 2019
Orbit: 748 x 795 km, 98.6° (Epoch: 19 October)

Event Time Altitude Azimuth Distance (km) Brightness Sun altitude
Rises 09:08:14 0° 4° (N) 3,246 6.1 -30.8°
Reaches altitude 10° 09:10:41 10° 357° (N) 2,308 5.2 -30.4°
Enters shadow 09:12:29 21° 346° (NNW) 1,677 4.3 -30.1°
